                ,  0.865,  0.962,  1.058,  1.155,  1.251,  1.348,  1.445,  1.541,  1.638,  1.734,  1.831,  1.928,  2.024,  2.121,  2.217,  2.314,  2.410,  2.507,  2.604,  2.700,  2.797,  2.893,  2.990,  3.087,  3.183,  3.280,  3.376,  3.473,  3.570,  3.666,  3.763,  3.859,  3.956,  4.053,  4.149,  4.246,  4.342,  4.439,  4.536,  4.632,  4.729,  4.825,  4.922,  5.018,  5.115,  5.212,  5.308,  5.405,  5.501,  5.598,  5.695,  5.791
1999/02/28 00:00,  999.0,  999.0,  999.0,  999.0,  -57.7,  -56.0,  -56.4,  -55.4,  -55.4,  -55.5,  -58.1,  -56.7,  -57.3,  -57.5,  -57.4,  -56.1,  -57.4,  -57.2,  -57.5,  -56.5,  -58.3,  -57.7,  -58.3,  -56.9,  -58.1,  -57.1,  -58.0,  -56.8,  -57.9,  -57.3,  -58.4,  -56.6,  -58.1,  -57.8,  -57.9,  -56.7,  -58.4,  -57.0,  -58.4,  -57.0,  -58.1,  -57.8,  -57.8,  -56.4,  -58.2,  -58.0,  -58.1,  -56.7,  -58.0,  -57.5,  -58.6,  -56.5
1999/02/28 00:10,  999.0,  999.0,  999.0,  -60.3,  -57.9,  -56.2,  -57.1,  -55.9,  -56.5,  -56.6,  -57.6,  -56.5,  -57.8,  -56.6,  -57.5,  -56.7,  -58.1,  -57.3,  -57.9,  -56.5,  -58.2,  -56.9,  -58.3,  -57.0,  -58.0,  -57.5,  -58.2,  -56.9,  -57.7,  -57.6,  -59.0,  -57.2,  -58.4,  -57.8,  -58.3,  -57.1,  -58.2,  -57.1,  -58.6,  -57.0,  -57.7,  -56.9,  -57.8,  -56.3,  -57.8,  -57.6,  -58.1,  -56.7,  -58.2,  -57.4,  -58.4,  -56.7
1999/02/28 00:20,  999.0,  999.0,  999.0,  999.0,  -58.6,  -56.4,  -57.3,  -56.4,  -57.1,  -56.3,  -58.7,  -56.7,  -57.6,  -57.3,  -58.0,  -57.0,  -57.9,  -57.6,  -58.3,  -56.7,  -58.1,  -57.6,  -58.1,  -57.4,  -58.6,  -57.7,  -58.0,  -56.6,  -58.5,  -57.4,  -58.4,  -57.4,  -58.3,  -57.9,  -58.2,  -57.0,  -58.1,  -57.7,  -58.7,  -57.0,  -58.4,  -57.8,  -58.5,  -57.3,  -58.0,  -57.8,  -58.4,  -57.2,  -58.2,  -57.3,  -58.3,  -57.2
1999/02/28 00:30,  999.0,  999.0,  999.0,  999.0,  -58.3,  -56.3,  -57.3,  -56.5,  -57.0,  -56.3,  -58.1,  -56.4,  -57.9,  -56.9,  -57.8,  -56.1,  -58.1,  -57.6,  -58.5,  -56.7,  -58.1,  -58.1,  -58.5,  -56.8,  -58.3,  -58.0,  -58.6,  -56.6,  -58.1,  -57.6,  -58.6,  -56.9,  -58.5,  -57.7,  -58.4,  -57.3,  -57.9,  -57.6,  -58.2,  -56.8,  -58.4,  -57.5,  -58.6,  -56.7,  -58.3,  -57.8,  -58.7,  -56.6,  -58.5,  -57.4,  -58.6,  -56.9
1999/02/28 00:40,  999.0,  999.0,  999.0,  -62.6,  -58.3,  -56.3,  -57.0,  -56.0,  -56.4,  -56.3,  -58.0,  -56.2,  -58.2,  -56.9,  -57.6,  -55.8,  -57.6,  -57.3,  -58.2,  -56.4,  -58.2,  -57.4,  -58.6,  -56.8,  -57.9,  -57.6,  -58.5,  -56.5,  -58.3,  -57.3,  -57.9,  -56.9,  -58.5,  -57.9,  -58.3,  -56.7,  -58.4,  -57.7,  -58.8,  -57.2,  -58.0,  -57.3,  -58.1,  -56.8,  -58.0,  -57.7,  -58.6,  -56.8,  -58.5,  -58.1,  -58.7,  -57.1
1999/02/28 00:50,  999.0,  999.0,  999.0,  -64.6,  -57.4,  -55.6,  -56.6,  -55.3,  -56.8,  -55.1,  -57.1,  -55.9,  -58.0,  -57.0,  -58.0,  -56.3,  -58.1,  -57.3,  -58.3,  -56.6,  -57.8,  -57.7,  -58.7,  -56.6,  -58.2,  -57.6,  -58.7,  -56.6,  -58.3,  -57.8,  -58.4,  -56.8,  -58.1,  -57.7,  -58.3,  -56.9,  -58.2,  -57.5,  -58.4,  -56.6,  -58.6,  -57.2,  -58.2,  -56.3,  -58.2,  -57.1,  -58.6,  -57.2,  -58.6,  -57.5,  -58.6,  -56.9
1999/02/28 01:00,  999.0,  999.0,  999.0,  -62.8,  -58.3,  -56.1,  -57.1,  -55.8,  -56.9,  -56.5,  -57.8,  -55.7,  -58.4,  -57.4,  -57.8,  -56.2,  -58.3,  -57.8,  -58.3,  -56.4,  -58.1,  -57.7,  -58.3,  -56.5,  -58.3,  -57.4,  -58.4,  -56.2,  -58.5,  -57.6,  -58.4,  -56.6,  -58.0,  -57.4,  -58.9,  -57.1,  -58.2,  -57.3,  -58.4,  -56.9,  -58.3,  -57.5,  -57.8,  -56.4,  -58.2,  -57.8,  -58.6,  -57.1,  -58.6,  -57.4,  -58.4,  -56.7
1999/02/28 01:10,  999.0,  999.0,  999.0,  -62.5,  -58.7,  -56.2,  -57.5,  -56.7,  -57.0,  -56.6,  -58.4,  -56.4,  -57.6,  -57.5,  -57.4,  -56.1,  -57.0,  -56.9,  -58.1,  -56.5,  -57.9,  -58.3,  -58.5,  -57.0,  -58.7,  -58.0,  -58.1,  -56.6,  -58.8,  -57.7,  -58.7,  -56.9,  -57.6,  -57.8,  -57.6,  -56.8,  -58.4,  -57.3,  -58.3,  -57.2,  -57.7,  -57.5,  -58.5,  -56.4,  -58.3,  -57.7,  -58.1,  -57.0,  -58.3,  -57.5,  -58.3,  -56.7
1999/02/28 01:20,  999.0,  999.0,  999.0,  -60.5,  -57.9,  -56.4,  -57.4,  -56.2,  -56.5,  -55.8,  -57.9,  -56.2,  -58.3,  -57.2,  -58.0,  -56.3,  -58.1,  -57.2,  -58.2,  -56.3,  -58.1,  -57.6,  -58.8,  -56.9,  -58.4,  -57.7,  -58.2,  -56.6,  -58.7,  -57.7,  -58.8,  -56.7,  -58.1,  -58.0,  -58.6,  -57.1,  -58.9,  -57.7,  -59.4,  -57.0,  -58.1,  -57.7,  -58.3,  -56.3,  -58.4,  -57.7,  -58.6,  -56.8,  -58.3,  -57.6,  -58.3,  -57.1
1999/02/28 01:30,  999.0,  999.0,  999.0,  -63.5,  -58.4,  -56.4,  -56.8,  -56.2,  -56.5,  -56.8,  -57.7,  -56.5,  -58.0,  -57.2,  -57.7,  -56.7,  -58.3,  -57.2,  -58.3,  -56.4,  -57.9,  -57.9,  -58.4,  -56.8,  -57.4,  -57.4,  -58.3,  -56.6,  -58.2,  -57.8,  -58.6,  -57.0,  -58.3,  -57.6,  -58.6,  -57.2,  -58.9,  -57.6,  -58.5,  -57.0,  -58.6,  -57.6,  -57.9,  -56.4,  -58.7,  -57.8,  -58.2,  -57.0,  -58.5,  -58.0,  -58.7,  -57.0
1999/02/28 01:40,  999.0,  999.0,  999.0,  -61.8,  -58.1,  -55.9,  -57.2,  -55.9,  -56.9,  -56.6,  -58.2,  -56.5,  -57.5,  -57.0,  -58.1,  -56.5,  -58.2,  -57.7,  -57.9,  -56.7,  -58.0,  -57.4,  -58.5,  -56.8,  -58.2,  -57.4,  -58.4,  -56.2,  -58.1,  -57.8,  -58.5,  -57.2,  -58.6,  -57.6,  -58.6,  -57.3,  -58.0,  -57.2,  -58.5,  -56.8,  -58.2,  -57.5,  -58.2,  -56.8,  -58.0,  -57.5,  -58.4,  -56.9,  -58.0,  -57.7,  -58.6,  -56.9
1999/02/28 01:50,  999.0,  999.0,  999.0,  -64.7,  -58.3,  -56.6,  -56.7,  -56.2,  -56.4,  -56.2,  -58.0,  -56.7,  -58.4,  -57.2,  -57.9,  -56.6,  -58.3,  -57.6,  -57.8,  -57.2,  -58.4,  -57.6,  -58.7,  -57.1,  -57.9,  -57.8,  -58.6,  -57.4,  -57.8,  -57.7,  -59.2,  -57.3,  -58.5,  -57.6,  -58.2,  -57.0,  -58.0,  -57.7,  -58.8,  -57.2,  -58.2,  -58.2,  -58.1,  -57.3,  -58.6,  -58.0,  -58.5,  -57.3,  -58.3,  -58.2,  -59.0,  -56.7
1999/02/28 02:00,  999.0,  999.0,  999.0,  -62.7,  -57.8,  -55.7,  -56.2,  -56.0,  -56.5,  -56.1,  -57.8,  -56.5,  -57.9,  -56.4,  -57.8,  -56.9,  -58.3,  -57.5,  -58.2,  -56.8,  -58.2,  -58.2,  -58.5,  -56.9,  -58.5,  -57.3,  -58.1,  -56.6,  -58.0,  -57.5,  -58.2,  -57.0,  -57.9,  -57.8,  -58.4,  -57.2,  -59.0,  -57.5,  -58.7,  -57.0,  -58.4,  -57.6,  -58.4,  -56.7,  -57.9,  -57.4,  -58.4,  -56.9,  -58.1,  -57.7,  -58.5,  -56.6
1999/02/28 02:10,  999.0,  999.0,  999.0,  -63.1,  -57.8,  -55.9,  -56.7,  -56.2,  -56.3,  -55.9,  -58.3,  -56.6,  -58.4,  -57.4,  -58.3,  -56.3,  -57.8,  -57.5,  -58.0,  -56.2,  -57.8,  -56.9,  -58.4,  -56.6,  -58.3,  -57.6,  -58.4,  -56.2,  -58.3,  -57.3,  -58.0,  -56.4,  -58.3,  -57.4,  -58.5,  -56.9,  -57.9,  -57.4,  -58.7,  -57.0,  -58.4,  -57.4,  -58.0,  -56.7,  -57.9,  -57.6,  -58.6,  -56.9,  -58.3,  -57.7,  -57.9,  -56.9
1999/02/28 02:20,  999.0,  999.0,  999.0,  -63.1,  -58.1,  -56.1,  -56.6,  -56.2,  -56.5,  -56.1,  -57.8,  -55.9,  -57.6,  -57.2,  -58.0,  -56.8,  -57.8,  -57.4,  -58.1,  -56.3,  -58.6,  -57.4,  -58.2,  -56.6,  -57.5,  -57.8,  -58.2,  -56.2,  -58.7,  -57.7,  -58.6,  -57.4,  -57.6,  -57.0,  -58.5,  -56.7,  -57.8,  -57.0,  -58.7,  -56.5,  -58.2,  -57.7,  -57.9,  -56.5,  -58.3,  -57.6,  -58.6,  -56.8,  -57.6,  -57.2,  -57.8,  -56.5
1999/02/28 02:30,  999.0,  999.0,  999.0,  -62.5,  -57.8,  -56.0,  -56.6,  -55.9,  -55.9,  -55.3,  -57.7,  -56.7,  -57.4,  -57.2,  -57.8,  -56.0,  -58.1,  -57.2,  -58.2,  -56.6,  -57.8,  -57.4,  -59.0,  -56.7,  -58.2,  -57.9,  -58.1,  -56.1,  -58.3,  -57.2,  -58.0,  -57.1,  -58.4,  -57.6,  -58.7,  -56.7,  -58.3,  -57.1,  -58.4,  -56.5,  -58.9,  -57.7,  -57.9,  -56.3,  -58.4,  -57.5,  -58.7,  -56.7,  -58.4,  -57.7,  -58.7,  -57.0
1999/02/28 02:40,  999.0,  999.0,  999.0,  -62.7,  -58.1,  -56.2,  -56.5,  -56.4,  -56.4,  -55.4,  -57.7,  -56.3,  -58.0,  -56.8,  -57.5,  -56.7,  -58.2,  -57.1,  -58.2,  -56.6,  -58.1,  -57.9,  -58.8,  -56.6,  -58.4,  -57.8,  -58.5,  -57.0,  -57.7,  -57.2,  -57.9,  -56.9,  -58.4,  -58.0,  -58.4,  -57.7,  -58.0,  -57.4,  -58.7,  -57.0,  -58.4,  -57.8,  -58.1,  -56.7,  -58.1,  -57.7,  -58.5,  -56.7,  -58.3,  -56.8,  -58.3,  -56.8
1999/02/28 02:50,  999.0,  999.0,  999.0,  -62.0,  -57.7,  -56.6,  -56.6,  -56.3,  -56.7,  -55.4,  -57.1,  -56.0,  -57.7,  -57.0,  -57.8,  -56.8,  -58.0,  -57.4,  -58.0,  -56.3,  -57.8,  -57.3,  -58.2,  -56.4,  -58.0,  -57.6,  -58.2,  -56.6,  -58.0,  -57.7,  -58.5,  -56.6,  -58.3,  -57.8,  -58.4,  -56.6,  -58.2,  -57.8,  -58.1,  -56.8,  -58.3,  -57.2,  -58.4,  -56.6,  -58.3,  -57.7,  -58.7,  -56.8,  -58.8,  -57.7,  -58.5,  -56.5
1999/02/28 03:00,  999.0,  999.0,  999.0,  999.0,  -57.9,  -56.7,  -56.9,  -56.8,  -55.9,  -55.2,  -57.4,  -56.6,  -57.9,  -56.8,  -57.5,  -56.5,  -57.8,  -57.8,  -57.9,  -57.1,  -58.3,  -57.3,  -57.9,  -56.9,  -58.1,  -57.8,  -58.3,  -56.8,  -57.9,  -57.4,  -58.2,  -57.0,  -58.3,  -57.5,  -58.3,  -57.4,  -58.3,  -57.4,  -58.3,  -56.9,  -59.0,  -57.4,  -57.9,  -57.1,  -58.1,  -57.5,  -58.2,  -57.4,  -58.5,  -57.3,  -58.1,  -57.1
1999/02/28 03:10,  999.0,  999.0,  999.0,  -63.3,  -58.2,  -56.3,  -56.8,  -56.5,  -56.3,  -55.2,  -56.7,  -56.1,  -57.9,  -56.8,  -57.2,  -56.1,  -57.6,  -57.2,  -58.2,  -56.8,  -58.2,  -58.0,  -58.1,  -56.8,  -57.9,  -56.8,  -58.1,  -56.9,  -58.5,  -57.0,  -58.1,  -56.7,  -58.1,  -57.8,  -58.2,  -56.7,  -58.1,  -57.2,  -58.2,  -56.6,  -58.7,  -58.0,  -58.0,  -56.3,  -57.6,  -58.0,  -58.5,  -57.2,  -58.5,  -57.6,  -58.2,  -56.7
1999/02/28 03:20,  999.0,  999.0,  999.0,  -60.0,  -57.8,  -56.2,  -56.4,  -56.2,  -56.2,  -55.4,  -57.0,  -55.8,  -57.8,  -56.8,  -57.6,  -56.4,  -57.9,  -57.2,  -58.1,  -56.2,  -58.1,  -57.3,  -57.8,  -56.3,  -57.8,  -57.7,  -58.1,  -56.6,  -58.1,  -57.4,  -58.4,  -56.7,  -58.1,  -57.2,  -58.2,  -57.0,  -58.0,  -57.2,  -58.5,  -56.8,  -58.1,  -57.4,  -57.9,  -56.4,  -58.2,  -57.3,  -58.1,  -56.6,  -58.3,  -57.0,  -58.3,  -56.5
1999/02/28 03:30,  999.0,  999.0,  999.0,  -63.8,  -58.2,  -56.2,  -57.3,  -56.6,  -56.3,  -55.5,  -57.7,  -56.3,  -57.6,  -57.7,  -58.1,  -56.3,  -57.9,  -57.5,  -58.4,  -56.4,  -57.9,  -57.1,  -58.3,  -56.4,  -58.2,  -57.8,  -58.7,  -56.7,  -58.3,  -57.1,  -58.1,  -57.0,  -58.2,  -57.3,  -58.6,  -57.1,  -58.3,  -57.8,  -58.3,  -57.0,  -58.3,  -57.3,  -58.3,  -56.9,  -58.4,  -57.7,  -58.7,  -56.9,  -58.7,  -57.6,  -58.3,  -56.5
1999/02/28 03:40,  999.0,  999.0,  999.0,  -57.7,  -57.1,  -56.0,  -56.6,  -56.0,  -57.1,  -56.2,  -57.7,  -56.2,  -58.1,  -57.1,  -57.6,  -56.5,  -57.9,  -58.0,  -58.3,  -57.2,  -58.6,  -57.5,  -58.3,  -57.1,  -58.7,  -58.0,  -58.9,  -57.3,  -58.2,  -57.7,  -58.4,  -57.0,  -58.1,  -57.9,  -58.8,  -57.7,  -58.5,  -57.6,  -58.6,  -57.3,  -58.7,  -57.6,  -58.8,  -57.1,  -58.3,  -57.0,  -58.5,  -57.2,  -58.5,  -58.2,  -57.9,  -56.5
1999/02/28 03:50,  999.0,  999.0,  999.0,  -58.3,  -58.2,  -56.7,  -57.4,  -56.1,  -56.4,  -56.4,  -57.4,  -56.8,  -57.8,  -57.4,  -57.9,  -56.4,  -57.8,  -57.6,  -57.9,  -57.1,  -58.4,  -57.9,  -58.2,  -56.8,  -57.7,  -57.3,  -57.8,  -56.6,  -58.2,  -57.8,  -58.6,  -56.9,  -58.0,  -57.7,  -58.3,  -56.9,  -58.0,  -57.6,  -58.0,  -57.2,  -58.0,  -56.8,  -58.2,  -57.2,  -58.7,  -57.6,  -58.6,  -57.2,  -58.3,  -58.0,  -58.2,  -57.4
1999/02/28 04:00,  999.0,  999.0,  999.0,  -60.0,  -57.0,  -55.9,  -56.0,  -55.6,  -56.3,  -56.5,  -57.8,  -56.6,  -58.3,  -57.2,  -58.4,  -56.8,  -57.2,  -57.0,  -58.3,  -57.0,  -57.9,  -57.8,  -58.3,  -57.1,  -58.3,  -57.8,  -58.6,  -56.4,  -58.0,  -57.7,  -58.3,  -56.9,  -58.4,  -57.8,  -58.3,  -56.8,  -58.3,  -57.1,  -58.8,  -56.5,  -57.9,  -57.6,  -58.8,  -56.4,  -57.8,  -57.4,  -58.5,  -56.7,  -58.2,  -58.1,  -58.7,  -57.0
1999/02/28 04:10,  999.0,  999.0,  999.0,  -60.0,  -57.4,  -56.8,  -56.6,  -55.4,  -55.9,  -56.0,  -57.5,  -56.6,  -57.8,  -57.2,  -57.8,  -56.5,  -58.7,  -57.6,  -58.6,  -56.7,  -57.8,  -57.8,  -59.0,  -57.3,  -58.2,  -58.2,  -58.5,  -56.8,  -58.9,  -57.7,  -58.3,  -56.9,  -58.1,  -58.1,  -58.1,  -57.1,  -57.6,  -58.1,  -58.7,  -57.5,  -57.8,  -57.6,  -58.0,  -57.2,  -58.1,  -57.6,  -58.9,  -57.3,  -58.3,  -57.8,  -58.3,  -57.7
1999/02/28 04:20,  999.0,  999.0,  999.0,  -63.3,  -57.0,  -55.8,  -55.4,  -54.7,  -55.6,  -56.1,  -56.5,  -56.0,  -58.1,  -57.2,  -57.8,  -56.1,  -58.0,  -57.8,  -58.4,  -56.4,  -58.5,  -57.9,  -58.2,  -56.9,  -58.2,  -57.6,  -58.9,  -56.4,  -58.9,  -58.0,  -58.5,  -57.0,  -58.6,  -57.6,  -58.7,  -56.4,  -58.1,  -57.8,  -58.7,  -56.6,  -58.1,  -58.1,  -58.3,  -56.5,  -57.7,  -57.8,  -58.4,  -57.0,  -58.7,  -57.8,  -58.4,  -56.4
1999/02/28 04:30,  999.0,  999.0,  999.0,  -62.5,  -57.7,  -56.6,  -56.4,  -55.7,  -56.2,  -56.8,  -57.9,  -57.0,  -58.1,  -57.5,  -57.9,  -56.6,  -58.2,  -57.5,  -58.4,  -57.4,  -58.2,  -57.2,  -58.7,  -57.8,  -58.8,  -58.2,  -58.2,  -56.9,  -58.2,  -57.9,  -59.0,  -57.2,  -58.5,  -58.1,  -58.4,  -58.0,  -58.3,  -58.0,  -58.4,  -57.4,  -58.7,  -57.8,  -58.6,  -56.8,  -58.2,  -57.9,  -58.8,  -57.1,  -58.8,  -58.4,  -58.5,  -57.4
1999/02/28 04:40,  999.0,  999.0,  999.0,  -62.1,  -57.0,  -56.6,  -56.6,  -56.4,  -56.5,  -56.4,  -57.5,  -56.7,  -57.9,  -56.7,  -58.0,  -57.5,  -57.9,  -57.7,  -58.7,  -56.8,  -58.4,  -57.5,  -58.4,  -57.5,  -58.6,  -57.7,  -58.2,  -57.2,  -58.8,  -57.6,  -58.4,  -57.2,  -58.3,  -57.6,  -58.3,  -57.3,  -58.1,  -57.9,  -58.8,  -57.4,  -58.7,  -57.9,  -58.6,  -57.1,  -59.1,  -57.9,  -59.2,  -56.9,  -58.4,  -58.0,  -58.4,  -57.3
1999/02/28 04:50,  999.0,  999.0,  999.0,  -61.6,  -57.6,  -56.3,  -56.0,  -56.8,  -56.9,  -57.1,  -57.6,  -56.7,  -57.9,  -56.9,  -57.9,  -57.1,  -57.9,  -57.3,  -58.4,  -57.3,  -58.0,  -57.7,  -58.6,  -57.4,  -58.8,  -58.2,  -58.8,  -57.2,  -58.6,  -57.6,  -58.7,  -57.5,  -58.4,  -57.6,  -58.4,  -57.0,  -58.1,  -57.9,  -58.7,  -57.5,  -58.8,  -57.9,  -58.8,  -56.9,  -58.6,  -58.1,  -59.1,  -57.6,  -58.0,  -57.7,  -58.4,  -57.2
1999/02/28 05:00,  999.0,  999.0,  999.0,  -59.9,  -56.6,  -57.6,  -56.1,  -55.2,  -55.6,  -56.1,  -57.9,  -56.7,  -58.1,  -57.1,  -57.2,  -57.1,  -58.6,  -58.4,  -58.8,  -56.7,  -58.4,  -57.6,  -58.2,  -57.3,  -58.3,  -57.8,  -58.7,  -57.4,  -58.2,  -57.9,  -58.7,  -57.6,  -59.0,  -57.4,  -58.7,  -57.6,  -58.7,  -57.9,  -58.9,  -57.5,  -58.6,  -58.2,  -59.0,  -57.5,  -58.0,  -57.8,  -58.6,  -57.5,  -58.8,  -58.3,  -58.2,  -57.0
1999/02/28 05:10,  999.0,  999.0,  999.0,  -57.7,  -55.7,  -54.4,  -57.6,  -57.2,  -54.4,  -55.0,  -57.5,  -56.6,  -57.8,  -58.3,  -58.0,  -57.2,  -58.7,  -57.9,  -58.8,  -56.8,  -58.4,  -57.7,  -58.5,  -57.4,  -59.0,  -57.8,  -58.5,  -57.0,  -58.5,  -57.9,  -58.7,  -57.3,  -58.5,  -57.9,  -58.6,  -57.0,  -58.7,  -57.6,  -58.8,  -57.0,  -58.4,  -58.2,  -59.0,  -57.6,  -58.1,  -57.6,  -58.2,  -57.1,  -58.4,  -57.8,  -58.7,  -57.4
1999/02/28 05:20,  999.0,  999.0,  999.0,  -59.3,  -52.7,  -55.3,  -53.6,  -54.4,  -54.6,  -54.8,  -57.4,  -57.1,  -58.9,  -58.0,  -58.3,  -57.2,  -58.3,  -57.4,  -58.3,  -57.6,  -58.4,  -57.4,  -58.7,  -57.7,  -58.8,  -58.1,  -58.6,  -57.1,  -58.5,  -58.1,  -58.4,  -57.6,  -58.8,  -58.3,  -58.3,  -57.5,  -58.2,  -57.6,  -59.0,  -57.6,  -59.2,  -57.8,  -58.5,  -57.5,  -58.5,  -57.1,  -58.4,  -57.8,  -59.2,  -58.1,  -59.2,  -57.4
1999/02/28 05:30,  999.0,  999.0,  999.0,  -58.8,  -54.1,  -55.0,  -56.5,  -53.9,  -53.3,  -55.4,  -56.2,  -55.2,  -56.7,  -56.5,  -57.8,  -56.4,  -59.0,  -57.8,  -58.7,  -56.6,  -58.2,  -58.2,  -59.2,  -57.3,  -58.3,  -57.7,  -58.7,  -57.4,  -57.3,  -57.8,  -58.6,  -57.5,  -58.2,  -57.9,  -58.1,  -57.5,  -58.8,  -57.9,  -59.1,  -57.2,  -58.3,  -57.7,  -58.4,  -57.1,  -58.1,  -58.2,  -58.3,  -57.0,  -58.1,  -58.2,  -58.5,  -58.0
1999/02/28 05:40,  999.0,  999.0,  999.0,  -59.6,  -57.0,  -54.5,  -53.7,  -52.5,  -49.7,  -52.4,  -52.8,  -52.2,  -52.5,  -55.4,  -55.8,  -56.4,  -58.4,  -57.5,  -58.0,  -56.7,  -58.4,  -57.5,  -58.6,  -57.3,  -58.8,  -57.8,  -58.6,  -57.6,  -58.5,  -58.0,  -58.8,  -57.4,  -58.6,  -58.1,  -59.2,  -57.4,  -58.2,  -57.4,  -58.5,  -56.9,  -58.2,  -58.3,  -58.8,  -57.2,  -58.7,  -58.2,  -59.2,  -57.5,  -59.2,  -58.0,  -58.7,  -57.6
1999/02/28 05:50,  -52.4,  999.0,  999.0,  999.0,  -58.1,  -55.7,  -57.2,  -54.9,  -53.0,  -54.0,  -51.3,  -50.2,  -53.6,  -54.5,  -55.6,  -54.2,  -56.3,  -56.4,  -57.6,  -57.1,  -58.2,  -57.8,  -58.6,  -57.5,  -58.6,  -57.6,  -58.3,  -57.5,  -58.6,  -58.1,  -58.2,  -57.5,  -57.6,  -57.8,  -59.0,  -57.9,  -58.8,  -57.4,  -58.0,  -57.5,  -58.8,  -57.6,  -58.9,  -57.4,  -58.1,  -58.2,  -58.3,  -57.0,  -58.7,  -58.1,  -58.2,  -57.5
1999/02/28 06:00,  999.0,  999.0,  999.0,  999.0,  -58.1,  -55.6,  -56.1,  -54.5,  -55.1,  -55.2,  -54.5,  -52.5,  -56.5,  -55.6,  -58.8,  -56.5,  -58.2,  -57.7,  -59.1,  -56.7,  -58.1,  -58.0,  -59.3,  -57.1,  -58.3,  -57.9,  -59.3,  -56.7,  -58.8,  -57.6,  -58.8,  -57.5,  -59.0,  -58.5,  -58.8,  -57.1,  -58.5,  -58.8,  -58.3,  -57.7,  -58.8,  -58.5,  -58.2,  -56.3,  -59.1,  -57.8,  -59.0,  -57.8,  -58.4,  -58.1,  -58.3,  -57.4
1999/02/28 06:10,  999.0,  999.0,  999.0,  -55.9,  -57.4,  -55.6,  -55.6,  -56.4,  -54.6,  -54.5,  -56.6,  -56.0,  -58.3,  -57.5,  -58.2,  -57.1,  -58.0,  -57.3,  -58.4,  -57.6,  -58.4,  -58.3,  -58.5,  -57.4,  -58.4,  -58.2,  -58.8,  -57.3,  -58.6,  -58.3,  -58.8,  -57.7,  -59.1,  -58.2,  -59.4,  -57.5,  -58.3,  -57.9,  -59.1,  -57.8,  -58.7,  -57.8,  -58.6,  -57.0,  -58.6,  -58.2,  -59.2,  -57.5,  -58.6,  -57.9,  -59.1,  -57.6
1999/02/28 06:20,  999.0,  999.0,  999.0,  999.0,  -59.2,  -56.2,  -57.4,  -56.9,  -55.8,  -56.3,  -57.6,  -52.5,  -55.5,  -55.3,  -57.6,  -56.6,  -58.2,  -57.8,  -58.3,  -56.9,  -58.0,  -58.2,  -58.6,  -57.7,  -58.4,  -58.1,  -59.3,  -57.3,  -58.7,  -58.7,  -58.4,  -57.5,  -58.2,  -58.6,  -58.7,  -57.9,  -58.0,  -58.6,  -58.3,  -57.5,  -58.6,  -58.3,  -59.0,  -57.9,  -58.6,  -58.1,  -58.7,  -57.7,  -58.4,  -57.8,  -58.8,  -57.5
1999/02/28 06:30,  999.0,  999.0,  999.0,  999.0,  -58.3,  -56.8,  -57.7,  -55.9,  -53.6,  -55.1,  -55.2,  -50.8,  -53.9,  -56.6,  -58.1,  -56.2,  -57.1,  -57.4,  -57.8,  -56.8,  -58.1,  -57.8,  -58.5,  -57.0,  -57.7,  -57.9,  -57.8,  -57.5,  -58.9,  -58.3,  -58.5,  -56.9,  -59.4,  -58.3,  -58.6,  -57.1,  -59.0,  -57.9,  -58.8,  -58.1,  -58.9,  -58.2,  -58.8,  -57.1,  -58.2,  -58.0,  -58.3,  -57.7,  -58.9,  -58.1,  -58.9,  -57.4
1999/02/28 06:40,  999.0,  999.0,  999.0,  999.0,  -56.3,  -55.0,  -56.2,  -56.0,  -54.8,  -55.1,  -56.6,  -56.0,  -57.2,  -57.1,  -58.0,  -56.2,  -57.7,  -57.7,  -58.3,  -57.5,  -58.2,  -57.7,  -59.0,  -57.0,  -58.3,  -57.9,  -58.9,  -57.2,  -58.3,  -57.8,  -58.7,  -57.4,  -58.3,  -58.6,  -59.1,  -57.7,  -58.5,  -57.9,  -57.9,  -57.3,  -58.8,  -58.1,  -59.1,  -56.5,  -59.4,  -57.9,  -58.9,  -57.5,  -57.6,  -58.4,  -58.8,  -57.1
1999/02/28 06:50,  999.0,  999.0,  999.0,  999.0,  -58.8,  -56.5,  -56.3,  -55.9,  -57.1,  -57.4,  -57.9,  -57.5,  -56.6,  -56.8,  -58.2,  -56.6,  -58.1,  -58.0,  -59.0,  -57.7,  -58.6,  -58.6,  -58.6,  -57.9,  -58.6,  -58.4,  -58.7,  -57.5,  -58.5,  -58.0,  -58.7,  -57.4,  -58.7,  -58.8,  -58.5,  -57.9,  -59.2,  -57.9,  -58.7,  -58.0,  -58.7,  -57.6,  -58.2,  -57.3,  -58.7,  -57.9,  -59.5,  -57.7,  -58.8,  -59.1,  -59.0,  -56.9
1999/02/28 07:00,  999.0,  999.0,  999.0,  -58.1,  -56.4,  -56.4,  -57.9,  -56.3,  -57.1,  -57.7,  -58.0,  -56.8,  -56.9,  -57.3,  -57.4,  -56.9,  -58.3,  -57.7,  -58.2,  -57.2,  -58.6,  -58.4,  -58.8,  -57.7,  -58.6,  -57.8,  -58.2,  -57.0,  -58.9,  -58.5,  -58.1,  -57.5,  -58.7,  -58.1,  -57.5,  -57.4,  -59.2,  -58.6,  -59.1,  -58.3,  -58.6,  -58.2,  -59.2,  -57.7,  -59.0,  -57.8,  -59.2,  -57.8,  -59.4,  -58.2,  -58.4,  -58.0
1999/02/28 07:10,  999.0,  999.0,  999.0,  -59.9,  -56.6,  -55.6,  -57.0,  -56.2,  -55.3,  -55.9,  -57.6,  -56.0,  -56.5,  -56.5,  -57.5,  -56.0,  -56.5,  -57.5,  -58.5,  -57.4,  -58.2,  -57.7,  -58.8,  -57.4,  -58.4,  -58.4,  -58.6,  -57.3,  -58.8,  -58.2,  -58.8,  -57.7,  -58.8,  -57.5,  -58.7,  -57.5,  -58.1,  -57.5,  -59.0,  -57.3,  -58.6,  -58.3,  -58.6,  -56.8,  -58.5,  -58.0,  -58.2,  -57.6,  -58.1,  -57.8,  -58.7,  -57.7
1999/02/28 07:20,  999.0,  999.0,  999.0,  -57.5,  -58.0,  -57.0,  -57.5,  -56.9,  -56.4,  -56.5,  -57.5,  -55.8,  -57.6,  -57.3,  -58.6,  -57.1,  -58.7,  -58.4,  -58.1,  -57.0,  -58.8,  -57.8,  -58.0,  -57.3,  -58.9,  -58.0,  -58.6,  -57.0,  -58.6,  -58.2,  -58.8,  -57.2,  -59.2,  -58.0,  -58.7,  -56.9,  -59.0,  -57.7,  -58.1,  -56.8,  -58.0,  -57.7,  -58.4,  -57.6,  -58.8,  -57.7,  -58.8,  -57.4,  -58.3,  -58.1,  -58.9,  -57.5
1999/02/28 07:30,  999.0,  999.0,  999.0,  -56.9,  -57.0,  -56.5,  -56.4,  -55.2,  -55.6,  -55.4,  -56.4,  -55.4,  -57.4,  -56.7,  -57.5,  -56.4,  -58.5,  -57.4,  -58.3,  -56.6,  -58.2,  -57.9,  -58.7,  -56.8,  -58.0,  -58.2,  -58.8,  -57.0,  -58.5,  -58.1,  -58.8,  -57.2,  -58.9,  -57.8,  -58.9,  -57.4,  -58.6,  -57.2,  -58.3,  -56.7,  -58.6,  -57.7,  -58.7,  -56.7,  -58.7,  -58.0,  -58.6,  -57.0,  -58.4,  -57.8,  -58.7,  -57.0
1999/02/28 07:40,  999.0,  999.0,  999.0,  -59.0,  -57.7,  -56.3,  -56.3,  -56.4,  -56.2,  -57.3,  -58.2,  -56.8,  -57.6,  -57.6,  -58.2,  -57.4,  -58.1,  -58.0,  -58.7,  -57.7,  -58.6,  -57.6,  -58.7,  -57.4,  -59.2,  -57.6,  -58.5,  -57.6,  -58.8,  -58.1,  -58.1,  -57.7,  -58.6,  -58.1,  -58.8,  -57.3,  -58.7,  -58.3,  -58.9,  -57.5,  -58.8,  -58.5,  -58.6,  -57.2,  -58.6,  -58.2,  -58.4,  -57.4,  -59.0,  -58.0,  -58.6,  -57.9
1999/02/28 07:50,  999.0,  999.0,  999.0,  -58.3,  -56.8,  -55.9,  -54.9,  -54.4,  -53.6,  -54.4,  -57.6,  -56.3,  -57.9,  -57.1,  -57.7,  -56.6,  -58.1,  -57.9,  -57.7,  -56.5,  -57.9,  -57.2,  -58.1,  -56.8,  -58.4,  -57.7,  -58.9,  -56.7,  -58.3,  -57.5,  -58.3,  -56.8,  -58.4,  -58.1,  -58.7,  -57.0,  -58.3,  -57.4,  -58.8,  -56.9,  -58.3,  -57.8,  -58.4,  -56.6,  -58.3,  -57.6,  -59.0,  -57.1,  -58.3,  -58.0,  -58.6,  -57.0
1999/02/28 08:00,  999.0,  999.0,  999.0,  -54.9,  -56.1,  -55.6,  -55.3,  -55.3,  -50.9,  -53.0,  -57.5,  -55.9,  -57.8,  -57.0,  -57.9,  -55.5,  -57.5,  -57.2,  -57.9,  -56.3,  -57.9,  -57.9,  -58.9,  -56.4,  -58.4,  -57.7,  -58.7,  -56.8,  -57.9,  -57.5,  -57.7,  -56.2,  -57.6,  -58.0,  -59.0,  -55.9,  -58.1,  -57.4,  -58.5,  -56.6,  -58.2,  -57.3,  -58.8,  -57.0,  -57.8,  -57.5,  -58.4,  -56.7,  -58.1,  -57.3,  -58.3,  -57.2
1999/02/28 08:10,  999.0,  999.0,  999.0,  -58.6,  -56.9,  -56.0,  -54.9,  -54.8,  -54.6,  -55.6,  -57.3,  -56.4,  -57.5,  -57.4,  -58.3,  -56.7,  -57.6,  -57.7,  -58.9,  -56.4,  -57.9,  -57.1,  -58.5,  -57.2,  -58.2,  -57.6,  -58.5,  -56.3,  -58.3,  -57.9,  -58.7,  -57.4,  -58.2,  -58.2,  -58.2,  -57.0,  -57.8,  -57.4,  -58.3,  -56.3,  -58.1,  -57.4,  -58.3,  -56.7,  -57.9,  -57.6,  -58.0,  -57.0,  -58.2,  -57.8,  -58.0,  -56.9
1999/02/28 08:20,  999.0,  999.0,  999.0,  -57.0,  -57.2,  -56.0,  -55.8,  -55.2,  -55.8,  -56.4,  -57.4,  -56.8,  -58.0,  -56.6,  -58.4,  -57.0,  -58.7,  -57.5,  -58.1,  -56.9,  -57.8,  -57.7,  -58.6,  -57.1,  -58.2,  -57.5,  -58.6,  -57.3,  -57.9,  -57.3,  -58.4,  -57.4,  -58.4,  -57.5,  -58.0,  -56.8,  -58.6,  -57.5,  -58.4,  -57.1,  -58.9,  -57.8,  -58.6,  -56.7,  -58.9,  -57.7,  -58.2,  -55.9,  -58.2,  -57.7,  -58.8,  -56.7
1999/02/28 08:30,  999.0,  999.0,  999.0,  -56.4,  -56.2,  -55.2,  -55.3,  -55.1,  -54.9,  -54.9,  -57.7,  -56.3,  -57.8,  -57.5,  -58.1,  -56.9,  -58.3,  -57.9,  -58.8,  -57.0,  -58.0,  -58.0,  -58.7,  -57.0,  -57.9,  -57.5,  -58.6,  -57.0,  -58.5,  -57.9,  -58.3,  -57.2,  -58.4,  -57.8,  -58.8,  -57.3,  -58.3,  -57.5,  -58.7,  -57.1,  -58.6,  -57.5,  -58.3,  -57.3,  -58.5,  -58.0,  -58.1,  -57.3,  -58.3,  -57.7,  -58.3,  -57.4
1999/02/28 08:40,  999.0,  999.0,  999.0,  -54.6,  -56.1,  -54.1,  -54.0,  -54.2,  -55.3,  -54.3,  -56.7,  -55.5,  -56.4,  -56.0,  -56.6,  -56.0,  -55.5,  -56.0,  -57.3,  -55.5,  -56.2,  -55.8,  -56.9,  -55.4,  -57.4,  -56.7,  -56.7,  -56.2,  -56.8,  -56.7,  -56.7,  -55.9,  -57.5,  -56.3,  -57.3,  -55.7,  -56.5,  -56.4,  -56.5,  -55.7,  -57.1,  -56.3,  -56.8,  -55.6,  -56.0,  -56.9,  -57.6,  -55.9,  -56.6,  -56.1,  -57.3,  -55.8
1999/02/28 08:50,  999.0,  999.0,  999.0,  -57.8,  -55.8,  -55.4,  -55.0,  -54.6,  -55.3,  -54.9,  -56.8,  -56.3,  -58.0,  -57.4,  -58.1,  -56.2,  -57.8,  -57.9,  -58.3,  -57.3,  -57.8,  -57.1,  -58.1,  -57.2,  -58.2,  -57.5,  -58.1,  -57.0,  -57.6,  -57.8,  -58.4,  -56.8,  -58.1,  -57.5,  -58.3,  -56.8,  -58.1,  -57.8,  -58.4,  -57.0,  -59.0,  -57.7,  -58.4,  -56.9,  -58.3,  -57.4,  -58.4,  -57.3,  -58.2,  -57.4,  -57.8,  -57.1